Weather History for Rickenbacker, OH

Change the Weather History Date:

Sunday, January 6, 2013

  Actual Average Record
Temperature  
Mean Temperature 34 °F -  
Max Temperature 38 °F 37 °F 62 °F (1998)
Min Temperature 29 °F 24 °F -5 °F (2014)
Degree Days  
Heating Degree Days 32    
Moisture  
Dew Point 28 °F    
Average Humidity 76    
Maximum Humidity 86    
Minimum Humidity 71    
Precipitation  
Precipitation 0.00 in - - ()
Sea Level Pressure  
Sea Level Pressure 30.11 in    
Wind  
Wind Speed 9 mph (SW)    
Max Wind Speed 17 mph    
Max Gust Speed 25 mph    
Visibility 8 miles    
Events Rain , Snow    
Averages and records for this station are not official NWS values.
T = Trace of Precipitation, MM = Missing Value Source: NWS Daily Summary

Daily Weather History Graph

Daily Weather History Graph

Search for Another Location

Airport:

Trip Planner

Search our weather history database for the weather conditions in past years. The results will help you decide how hot, cold, wet, or windy it might be!

Date:

Astronomy

Jan. 06, 2013 Rise Set
Actual Time 7:53 AM EST 5:22 PM EST
Civil Twilight 7:23 AM EST 5:52 PM EST
Nautical Twilight 6:49 AM EST 6:26 PM EST
Astronomical Twilight 6:16 AM EST 6:58 PM EST
Moon 2:06 AM EST (1/6) 12:48 PM EST (1/6)
Length of Visible Light 10h 29m
Length of Day
9h 29m
Waning Crescent, 33% of the Moon is Illuminated
Jan 6
Waning Crescent
Jan 11
New
Jan 18
First Quarter
Jan 26
Full
Feb 3
Last Quarter

Hourly Weather History & Observations

Time (EST) Temp. Windchill Dew Point Humidity Pressure Visibility Wind Dir Wind Speed Gust Speed Precip Events Conditions
12:15 AM 35.6 °F 30.7 °F 28.4 °F 75% 30.15 in 10.0 mi SSW 5.8 mph - N/A   Overcast
12:35 AM 35.6 °F 30.7 °F 28.4 °F 75% 30.14 in 10.0 mi SSW 5.8 mph - N/A   Overcast
12:55 AM 35.1 °F 28.6 °F 28.0 °F 76% 30.13 in 10.0 mi SSW 8.1 mph - N/A   Overcast
1:15 AM 33.6 °F 27.5 °F 27.3 °F 78% 30.13 in 10.0 mi SSW 6.9 mph - N/A   Scattered Clouds
1:35 AM 32.9 °F 26.7 °F 26.8 °F 78% 30.13 in 10.0 mi SSW 6.9 mph - N/A   Clear
1:55 AM 32.7 °F 27.3 °F 26.6 °F 78% 30.12 in 10.0 mi South 5.8 mph - N/A   Scattered Clouds
2:15 AM 33.3 °F 27.9 °F 26.8 °F 77% 30.11 in 10.0 mi SSW 5.8 mph - N/A   Mostly Cloudy
2:35 AM 33.6 °F 27.5 °F 27.0 °F 77% 30.11 in 10.0 mi South 6.9 mph - N/A   Overcast
2:55 AM 34.0 °F 27.2 °F 27.0 °F 75% 30.11 in 10.0 mi South 8.1 mph - N/A   Overcast
3:15 AM 34.7 °F 27.5 °F 27.0 °F 73% 30.10 in 10.0 mi South 9.2 mph - N/A   Overcast
3:35 AM 35.2 °F 27.6 °F 27.0 °F 72% 30.10 in 10.0 mi SSW 10.4 mph - N/A   Overcast
3:55 AM 35.6 °F 28.6 °F 27.1 °F 71% 30.08 in 10.0 mi SSW 9.2 mph - N/A   Overcast
4:15 AM 35.6 °F 28.6 °F 27.1 °F 71% 30.08 in 10.0 mi SSW 9.2 mph - N/A   Overcast
4:35 AM 35.6 °F 29.2 °F 27.5 °F 72% 30.07 in 10.0 mi SSW 8.1 mph - N/A   Overcast
4:55 AM 35.6 °F 29.2 °F 27.5 °F 72% 30.07 in 10.0 mi SSW 8.1 mph - N/A   Overcast
5:15 AM 35.6 °F 29.2 °F 27.9 °F 73% 30.06 in 10.0 mi SSW 8.1 mph - N/A   Overcast
5:35 AM 35.4 °F 28.4 °F 27.9 °F 74% 30.06 in 10.0 mi South 9.2 mph - N/A   Overcast
5:55 AM 35.6 °F 28.6 °F 27.9 °F 73% 30.05 in 10.0 mi South 9.2 mph - N/A   Overcast
6:15 AM 35.8 °F 28.8 °F 28.2 °F 74% 30.05 in 10.0 mi South 9.2 mph - N/A   Overcast
6:35 AM 36.1 °F 30.6 °F 28.2 °F 73% 30.05 in 10.0 mi SSW 6.9 mph - N/A   Overcast
6:55 AM 36.0 °F 29.6 °F 28.4 °F 74% 30.05 in 10.0 mi SSW 8.1 mph - N/A   Overcast
7:15 AM 36.0 °F 29.6 °F 28.8 °F 75% 30.06 in 10.0 mi SSW 8.1 mph - N/A   Overcast
7:35 AM 36.0 °F 28.5 °F 28.8 °F 75% 30.06 in 10.0 mi SSW 10.4 mph - N/A   Overcast
7:55 AM 36.5 °F 28.7 °F 28.8 °F 74% 30.06 in 10.0 mi SSW 11.5 mph - N/A   Overcast
8:15 AM 36.3 °F 28.9 °F 28.8 °F 74% 30.06 in 10.0 mi SSW 10.4 mph - N/A   Overcast
8:35 AM 36.5 °F 29.2 °F 28.9 °F 74% 30.06 in 10.0 mi SSW 10.4 mph - N/A   Overcast
8:55 AM 36.5 °F 29.7 °F 28.9 °F 74% 30.06 in 10.0 mi SSW 9.2 mph - N/A   Overcast
9:35 AM 36.9 °F 29.1 °F 29.1 °F 74% 30.06 in 10.0 mi SSW 11.5 mph - N/A   Overcast
9:55 AM 37.0 °F 29.3 °F 29.1 °F 73% 30.06 in 10.0 mi SSW 11.5 mph - N/A   Overcast
10:15 AM 37.2 °F 29.1 °F 29.1 °F 73% 30.06 in 10.0 mi SSW 12.7 mph - N/A   Overcast
10:35 AM 37.4 °F 28.9 °F 29.3 °F 73% 30.06 in 10.0 mi SSW 13.8 mph - N/A   Overcast
10:55 AM 37.4 °F 29.3 °F 29.3 °F 73% 30.06 in 10.0 mi SSW 12.7 mph - N/A   Overcast
11:15 AM 37.6 °F 30.0 °F 29.5 °F 73% 30.05 in 10.0 mi SSW 11.5 mph - N/A   Overcast
11:35 AM 37.8 °F 30.2 °F 29.7 °F 73% 30.04 in 10.0 mi SW 11.5 mph - N/A   Overcast
11:55 AM 37.8 °F 30.7 °F 30.0 °F 74% 30.03 in 10.0 mi SW 10.4 mph - N/A   Overcast
12:15 PM 37.8 °F 30.2 °F 30.0 °F 74% 30.02 in 10.0 mi SW 11.5 mph - N/A   Overcast
12:35 PM 37.9 °F 30.9 °F 30.2 °F 74% 30.01 in 10.0 mi SSW 10.4 mph - N/A   Overcast
12:55 PM 38.3 °F 31.4 °F 30.2 °F 73% 30.00 in 10.0 mi SW 10.4 mph - N/A   Overcast
1:15 PM 38.3 °F 31.4 °F 30.4 °F 73% 30.01 in 10.0 mi SW 10.4 mph - N/A   Overcast
1:35 PM 38.3 °F 32.5 °F 30.6 °F 74% 30.01 in 10.0 mi SW 8.1 mph - N/A   Overcast
1:55 PM 38.1 °F 32.9 °F 30.6 °F 74% 30.01 in 10.0 mi SW 6.9 mph - N/A   Overcast
2:15 PM 38.3 °F 32.5 °F 30.7 °F 74% 30.01 in 10.0 mi SW 8.1 mph - N/A   Light Drizzle
2:35 PM 38.1 °F 31.7 °F 31.1 °F 76% 30.02 in 10.0 mi SW 9.2 mph - N/A   Light Drizzle
2:55 PM 37.8 °F 30.2 °F 31.3 °F 77% 30.03 in 5.0 mi WSW 11.5 mph - N/A Rain Light Rain
3:15 PM 36.9 °F 30.1 °F 31.8 °F 82% 30.03 in 5.0 mi WSW 9.2 mph - N/A Rain Light Rain
3:35 PM 36.5 °F 28.7 °F 32.0 °F 84% 30.04 in 7.0 mi WSW 11.5 mph - N/A Rain Rain
3:55 PM 36.0 °F 29.6 °F 32.0 °F 86% 30.05 in 7.0 mi WSW 8.1 mph - N/A   Overcast
4:15 PM 35.8 °F 30.1 °F 32.0 °F 86% 30.06 in 7.0 mi WSW 6.9 mph - N/A   Overcast
4:35 PM 35.6 °F 29.2 °F 31.8 °F 86% 30.07 in 7.0 mi WSW 8.1 mph - N/A   Overcast
4:55 PM 35.4 °F 25.6 °F 31.3 °F 85% 30.09 in 4.0 mi West 16.1 mph 24.2 mph N/A Snow Light Snow
5:35 PM 34.5 °F 24.1 °F 28.8 °F 79% 30.11 in 7.0 mi WNW 17.3 mph 21.9 mph N/A   Overcast
5:55 PM 33.8 °F 23.5 °F 28.4 °F 81% 30.13 in 7.0 mi West 16.1 mph 20.7 mph N/A   Overcast
6:15 PM 33.4 °F 23.9 °F 28.0 °F 81% 30.15 in 5.0 mi WNW 13.8 mph - N/A   Haze
6:35 PM 32.7 °F 22.5 °F 27.5 °F 81% 30.17 in 5.0 mi West 15.0 mph 25.3 mph N/A   Haze
6:55 PM 32.0 °F 23.6 °F 26.6 °F 80% 30.18 in 5.0 mi WNW 10.4 mph 13.8 mph N/A   Haze
7:15 PM 31.3 °F 20.7 °F 24.8 °F 77% 30.19 in 7.0 mi West 15.0 mph 20.7 mph N/A   Overcast
7:35 PM 30.9 °F 22.2 °F 23.4 °F 74% 30.21 in 7.0 mi WNW 10.4 mph 20.7 mph N/A   Overcast
7:55 PM 30.6 °F 21.2 °F 23.0 °F 74% 30.22 in 7.0 mi West 11.5 mph 17.3 mph N/A   Overcast
8:15 PM 30.2 °F 20.8 °F 23.0 °F 75% 30.22 in 7.0 mi WNW 11.5 mph - N/A   Overcast
8:35 PM 30.2 °F 20.2 °F 22.8 °F 74% 30.23 in 7.0 mi WNW 12.7 mph 18.4 mph N/A   Overcast
8:55 PM 30.0 °F 19.1 °F 22.8 °F 75% 30.24 in 7.0 mi West 15.0 mph 19.6 mph N/A   Overcast
9:15 PM 29.5 °F 21.8 °F 22.8 °F 76% 30.25 in 5.0 mi WNW 8.1 mph 19.6 mph N/A   Haze
9:35 PM 29.3 °F 19.6 °F 22.6 °F 76% 30.26 in 5.0 mi WNW 11.5 mph 18.4 mph N/A   Haze
10:15 PM 29.3 °F 20.8 °F 22.8 °F 77% 30.28 in 4.0 mi WNW 9.2 mph - N/A   Haze
10:55 PM 29.3 °F 22.3 °F 23.2 °F 78% 30.29 in 4.0 mi West 6.9 mph - N/A   Haze
11:15 PM 29.5 °F 23.4 °F 23.5 °F 79% 30.30 in 4.0 mi West 5.8 mph - N/A   Haze
11:35 PM 29.7 °F 26.1 °F 23.5 °F 78% 30.31 in 4.0 mi West 3.5 mph - N/A   Haze
11:55 PM 29.8 °F - 23.7 °F 78% 30.31 in 4.0 mi Calm Calm - N/A   Haze